• In Latvia
  • List of Countries
  • For 7 days
  • Water Temperature
  • Satellite Maps
  • Weather Map
  • Weather Widgets
  • user-avatar
    Login

    Hourly Weather Zhmerynka

    Today, 19 August, Sunday

    Time Temperature Precipitation Wind Pressure Humidity
    00:00 +21°C° 0.5 mm 1 mps 736 mmHg 75%
    01:00 +20°C° 0.5 mm 2 mps 736 mmHg 80%
    02:00 +19°C° 0 mm 1 mps 736 mmHg 84%
    03:00 +19°C° 0 mm 1 mps 736 mmHg 85%
    04:00 +19°C° 0 mm 1 mps 736 mmHg 86%
    05:00 +19°C° 0 mm 1 mps 736 mmHg 87%
    06:00 +20°C° 0 mm 1 mps 736 mmHg 83%
    07:00 +20°C° 0 mm 2 mps 736 mmHg 79%
    08:00 +23°C° 0 mm 2 mps 737 mmHg 76%
    09:00 +24°C° 0.1 mm 2 mps 737 mmHg 70%
    10:00 +26°C° 0.1 mm 2 mps 737 mmHg 65%
    11:00 +27°C° 0.1 mm 2 mps 737 mmHg 60%
    12:00 +28°C° 0.1 mm 2 mps 736 mmHg 56%
    13:00 +28°C° 0.1 mm 2 mps 736 mmHg 53%
    14:00 +29°C° 0.1 mm 2 mps 736 mmHg 50%
    15:00 +29°C° 0 mm 2 mps 736 mmHg 51%
    16:00 +29°C° 0 mm 2 mps 736 mmHg 52%
    17:00 +28°C° 0 mm 2 mps 736 mmHg 54%
    18:00 +27°C° 0 mm 2 mps 736 mmHg 59%
    19:00 +25°C° 0 mm 2 mps 736 mmHg 65%
    20:00 +23°C° 0 mm 2 mps 736 mmHg 71%
    21:00 +21°C° 0.1 mm 2 mps 736 mmHg 74%
    22:00 +21°C° 0.1 mm 2 mps 736 mmHg 76%
    23:00 +20°C° 0.1 mm 2 mps 736 mmHg 79%

    Tomorrow, 20 August, Monday

    Time Temperature Precipitation Wind Pressure Humidity
    00:00 +19°C° 0 mm 2 mps 736 mmHg 81%
    01:00 +19°C° 0 mm 2 mps 736 mmHg 83%
    02:00 +19°C° 0 mm 2 mps 736 mmHg 85%
    03:00 +18°C° 0 mm 2 mps 735 mmHg 87%
    04:00 +18°C° 0 mm 2 mps 735 mmHg 88%
    05:00 +18°C° 0 mm 2 mps 735 mmHg 89%
    06:00 +19°C° 0 mm 2 mps 735 mmHg 84%
    07:00 +21°C° 0 mm 2 mps 735 mmHg 78%
    08:00 +23°C° 0 mm 2 mps 735 mmHg 73%
    09:00 +25°C° 0 mm 2 mps 736 mmHg 67%
    10:00 +26°C° 0 mm 2 mps 736 mmHg 60%
    11:00 +27°C° 0 mm 2 mps 736 mmHg 54%
    12:00 +28°C° 0 mm 2 mps 735 mmHg 51%
    13:00 +29°C° 0 mm 1 mps 735 mmHg 48%
    14:00 +29°C° 0 mm 1 mps 735 mmHg 45%
    15:00 +29°C° 0 mm 1 mps 735 mmHg 46%
    16:00 +29°C° 0 mm 1 mps 734 mmHg 47%
    17:00 +29°C° 0 mm 1 mps 734 mmHg 47%
    18:00 +27°C° 0 mm 1 mps 734 mmHg 52%
    19:00 +25°C° 0 mm 1 mps 734 mmHg 57%
    20:00 +24°C° 0 mm 1 mps 734 mmHg 61%
    21:00 +23°C° 0 mm 1 mps 734 mmHg 64%
    22:00 +22°C° 0 mm 1 mps 734 mmHg 66%
    23:00 +22°C° 0 mm 1 mps 734 mmHg 69%

    Day after tomorrow, 21 August, Tuesday

    Time Temperature Precipitation Wind Pressure Humidity
    00:00 +21°C° 0 mm 1 mps 734 mmHg 70%
    01:00 +21°C° 0 mm 1 mps 734 mmHg 71%
    02:00 +20°C° 0 mm 1 mps 734 mmHg 73%
    03:00 +20°C° 0 mm 1 mps 733 mmHg 74%
    04:00 +20°C° 0 mm 1 mps 733 mmHg 74%
    05:00 +20°C° 0 mm 1 mps 733 mmHg 75%
    06:00 +21°C° 0 mm 1 mps 733 mmHg 71%
    07:00 +23°C° 0 mm 1 mps 734 mmHg 67%
    08:00 +25°C° 0 mm 2 mps 734 mmHg 63%
    09:00 +26°C° 0 mm 2 mps 734 mmHg 58%
    10:00 +27°C° 0 mm 2 mps 734 mmHg 54%
    11:00 +29°C° 0 mm 3 mps 735 mmHg 49%
    12:00 +29°C° 0.2 mm 3 mps 734 mmHg 49%
    13:00 +29°C° 0.2 mm 3 mps 734 mmHg 48%
    14:00 +29°C° 0.2 mm 4 mps 734 mmHg 48%
    15:00 +29°C° 0.3 mm 4 mps 734 mmHg 52%
    16:00 +28°C° 0.3 mm 4 mps 734 mmHg 56%
    17:00 +27°C° 0.3 mm 4 mps 734 mmHg 60%
    18:00 +25°C° 0 mm 4 mps 734 mmHg 66%
    19:00 +23°C° 0 mm 4 mps 735 mmHg 72%
    20:00 +21°C° 0 mm 3 mps 735 mmHg 77%
    21:00 +20°C° 0 mm 3 mps 735 mmHg 76%
    22:00 +19°C° 0 mm 3 mps 736 mmHg 75%
    23:00 +18°C° 0 mm 4 mps 736 mmHg 74%

    22 August, Wednesday

    Time Temperature Precipitation Wind Pressure Humidity
    00:00 +17°C° 0 mm 3 mps 736 mmHg 75%
    01:00 +16°C° 0 mm 3 mps 736 mmHg 76%
    02:00 +14°C° 0 mm 3 mps 736 mmHg 76%
    03:00 +14°C° 0 mm 3 mps 737 mmHg 79%
    04:00 +14°C° 0 mm 3 mps 737 mmHg 81%
    05:00 +13°C° 0 mm 3 mps 737 mmHg 84%
    06:00 +16°C° 0 mm 3 mps 737 mmHg 79%
    07:00 +17°C° 0 mm 3 mps 738 mmHg 75%
    08:00 +18°C° 0 mm 3 mps 738 mmHg 71%
    09:00 +20°C° 0 mm 3 mps 738 mmHg 64%
    10:00 +21°C° 0 mm 3 mps 739 mmHg 58%
    11:00 +24°C° 0 mm 3 mps 739 mmHg 51%
    12:00 +24°C° 0 mm 3 mps 739 mmHg 49%
    13:00 +25°C° 0 mm 3 mps 738 mmHg 47%
    14:00 +25°C° 0 mm 3 mps 738 mmHg 45%
    15:00 +25°C° 0 mm 3 mps 738 mmHg 46%
    16:00 +24°C° 0 mm 3 mps 738 mmHg 47%
    17:00 +24°C° 0 mm 3 mps 738 mmHg 49%
    18:00 +21°C° 0 mm 3 mps 738 mmHg 54%
    19:00 +20°C° 0 mm 2 mps 738 mmHg 60%
    20:00 +18°C° 0 mm 2 mps 738 mmHg 65%
    21:00 +17°C° 0 mm 2 mps 738 mmHg 67%
    22:00 +16°C° 0 mm 2 mps 738 mmHg 69%
    23:00 +16°C° 0 mm 2 mps 739 mmHg 71%

    23 August, Thursday

    Time Temperature Precipitation Wind Pressure Humidity
    00:00 +15°C° 0 mm 2 mps 739 mmHg 72%
    01:00 +15°C° 0 mm 2 mps 739 mmHg 74%
    02:00 +15°C° 0 mm 2 mps 739 mmHg 75%
    03:00 +14°C° 0 mm 2 mps 738 mmHg 76%
    04:00 +14°C° 0 mm 2 mps 738 mmHg 78%
    05:00 +14°C° 0 mm 2 mps 738 mmHg 79%
    06:00 +14°C° 0 mm 3 mps 738 mmHg 74%
    07:00 +17°C° 0 mm 3 mps 738 mmHg 69%
    08:00 +18°C° 0 mm 3 mps 739 mmHg 64%
    09:00 +20°C° 0 mm 3 mps 738 mmHg 58%
    10:00 +22°C° 0 mm 3 mps 738 mmHg 53%
    11:00 +23°C° 0 mm 4 mps 738 mmHg 47%
    12:00 +25°C° 0 mm 4 mps 738 mmHg 45%
    13:00 +26°C° 0 mm 3 mps 738 mmHg 43%
    14:00 +26°C° 0 mm 3 mps 738 mmHg 41%
    15:00 +26°C° 0 mm 3 mps 737 mmHg 42%
    16:00 +26°C° 0 mm 3 mps 737 mmHg 44%
    17:00 +25°C° 0 mm 3 mps 737 mmHg 46%
    18:00 +22°C° 0 mm 3 mps 737 mmHg 50%
    19:00 +20°C° 0 mm 3 mps 737 mmHg 54%
    20:00 +18°C° 0 mm 3 mps 736 mmHg 58%
    21:00 +18°C° 0 mm 3 mps 736 mmHg 58%
    22:00 +17°C° 0 mm 3 mps 736 mmHg 58%
    23:00 +16°C° 0 mm 3 mps 736 mmHg 58%

    24 August, Friday

    Time Temperature Precipitation Wind Pressure Humidity
    00:00 +16°C° 0 mm 3 mps 736 mmHg 57%
    01:00 +14°C° 0 mm 3 mps 736 mmHg 56%
    02:00 +14°C° 0 mm 3 mps 735 mmHg 56%
    03:00 +13°C° 0 mm 3 mps 735 mmHg 56%
    04:00 +13°C° 0 mm 3 mps 735 mmHg 56%
    05:00 +13°C° 0 mm 3 mps 735 mmHg 56%
    06:00 +14°C° 0 mm 3 mps 735 mmHg 54%
    07:00 +17°C° 0 mm 3 mps 735 mmHg 53%
    08:00 +18°C° 0 mm 3 mps 735 mmHg 52%
    09:00 +21°C° 0 mm 4 mps 735 mmHg 48%
    10:00 +23°C° 0 mm 4 mps 735 mmHg 44%
    11:00 +26°C° 0 mm 4 mps 735 mmHg 40%
    12:00 +26°C° 0 mm 4 mps 734 mmHg 38%
    13:00 +27°C° 0 mm 4 mps 734 mmHg 37%
    14:00 +28°C° 0 mm 4 mps 734 mmHg 35%
    15:00 +28°C° 0 mm 3 mps 733 mmHg 38%
    16:00 +28°C° 0 mm 3 mps 733 mmHg 41%
    17:00 +27°C° 0 mm 3 mps 733 mmHg 44%
    18:00 +25°C° 0 mm 3 mps 733 mmHg 47%
    19:00 +22°C° 0 mm 3 mps 733 mmHg 51%
    20:00 +20°C° 0 mm 3 mps 732 mmHg 54%
    21:00 +20°C° 0 mm 3 mps 732 mmHg 53%
    22:00 +19°C° 0 mm 4 mps 732 mmHg 53%
    23:00 +18°C° 0 mm 4 mps 732 mmHg 52%
    Show more